ITAMSAT 1 - Orbit

View from above orbital plane
View from above orbital plane
View from above satellite
View from above satellite

Ground track
Ground track

The orbit data is extracted from the following two-line orbital elements,

1 22826U 93061D   13143.85267350  .00000187  00000-0  89826-4 0  1475
2 22826 098.6110 088.4281 0008673 000.8392 061.2790 14.29846862 25286
Epoch (UTC): 23 May 2013 20:27:50
Eccentricity: 0.0008673
inclination: 98.6110°
perigee height: 786 km
apogee height: 798 km
right ascension of ascending node: 88.4281°
argument of perigee: 0.8392°
revolutions per day: 14.29846862
mean anomaly at epoch: 61.2790°
orbit number at epoch: 2528

The dashed part of the orbit path shows where the satellite is in the earth's shadow,  

Developed and maintained by Chris Peat, Heavens-Above GmbH. Please read the updated FAQ before sending e-mail. Imprint. DLR